Weather History for KITH - October, 2013

Change the Weather History Date:

Saturday, October 12, 2013

  Actual Average Record
Temperature  
Mean Temperature 56 °F -  
Max Temperature 73 °F 59 °F 86 °F (1928)
Min Temperature 39 °F 39 °F 23 °F (1964)
Degree Days  
Heating Degree Days 10    
Growing Degree Days 6 (Base 50)    
Moisture  
Dew Point 42 °F    
Average Humidity 64    
Maximum Humidity 97    
Minimum Humidity 24    
Precipitation  
Precipitation 0.00 in - - ()
Sea Level Pressure  
Sea Level Pressure 30.21 in    
Wind  
Wind Speed 5 mph (SE)    
Max Wind Speed 13 mph    
Max Gust Speed -    
Visibility 10 miles    
Events      
Averages and records for this station are not official NWS values.
T = Trace of Precipitation, MM = Missing Value Source: NWS Daily Summary

Daily Weather History Graph

Daily Weather History Graph

Search for Another Location

Airport or City:

Trip Planner

Search our weather history database for the weather conditions in past years. The results will help you decide how hot, cold, wet, or windy it might be!

Date:

Astronomy

Oct. 12, 2013 Rise Set
Actual Time 7:15 AM EDT 6:28 PM EDT
Civil Twilight 6:47 AM EDT 6:56 PM EDT
Nautical Twilight 6:14 AM EDT 7:28 PM EDT
Astronomical Twilight 5:42 AM EDT 8:01 PM EDT
Moon 2:43 PM EDT (10/12) 12:08 AM EDT (10/12)
Length of Visible Light 12h 09m
Length of Day
11h 12m
First Quarter, 58% of the Moon is Illuminated
Oct 12
First Quarter
Oct 18
Full
Oct 26
Last Quarter
Nov 3
New
Nov 10
First Quarter

Hourly Weather History & Observations

Time (EDT) Temp. Windchill Dew Point Humidity Pressure Visibility Wind Dir Wind Speed Gust Speed Precip Events Conditions
12:56 AM 46.9 °F - 43.9 °F 89% 30.15 in 10.0 mi East 4.6 mph - N/A   Clear
1:56 AM 41.9 °F - 41.0 °F 97% 30.16 in 10.0 mi Calm Calm - N/A   Clear
2:56 AM 41.9 °F 39.0 °F 41.0 °F 97% 30.17 in 10.0 mi East 4.6 mph - N/A   Clear
3:56 AM 41.9 °F 39.0 °F 41.0 °F 97% 30.17 in 10.0 mi East 4.6 mph - N/A   Clear
4:56 AM 43.9 °F 40.5 °F 38.8 °F 82% 30.18 in 10.0 mi East 5.8 mph - N/A   Clear
5:56 AM 39.9 °F - 37.9 °F 93% 30.20 in 10.0 mi Calm Calm - N/A   Clear
6:26 AM 42.8 °F - 37.4 °F 81% 30.20 in 10.0 mi Calm Calm - N/A   Clear
6:56 AM 41.9 °F 39.0 °F 38.8 °F 89% 30.22 in 10.0 mi East 4.6 mph - N/A   Clear
7:56 AM 43.0 °F 40.3 °F 38.8 °F 85% 30.24 in 10.0 mi ESE 4.6 mph - N/A   Clear
8:56 AM 48.9 °F - 41.0 °F 74% 30.25 in 10.0 mi ESE 3.5 mph - N/A   Clear
9:56 AM 55.9 °F - 45.0 °F 67% 30.24 in 10.0 mi Calm Calm - N/A   Clear
10:56 AM 63.0 °F - 45.0 °F 52% 30.24 in 10.0 mi Calm Calm - N/A   Clear
11:56 AM 68.9 °F - 38.8 °F 33% 30.23 in 10.0 mi South 5.8 mph - N/A   Clear
12:56 PM 72.0 °F - 32.9 °F 24% 30.22 in 10.0 mi SSE 12.7 mph - N/A   Clear
1:56 PM 72.9 °F - 34.0 °F 24% 30.21 in 10.0 mi SSE 11.5 mph - N/A   Clear
2:56 PM 72.9 °F - 36.9 °F 27% 30.20 in 10.0 mi South 10.4 mph - N/A   Clear
3:56 PM 72.9 °F - 38.8 °F 29% 30.19 in 10.0 mi South 6.9 mph - N/A   Clear
4:56 PM 72.0 °F - 41.9 °F 34% 30.19 in 10.0 mi SSE 3.5 mph - N/A   Clear
5:56 PM 70.0 °F - 45.9 °F 42% 30.20 in 10.0 mi Calm Calm - N/A   Clear
6:56 PM 61.0 °F - 43.9 °F 53% 30.22 in 10.0 mi SE 4.6 mph - N/A   Clear
7:56 PM 59.9 °F - 45.0 °F 58% 30.23 in 10.0 mi SSE 9.2 mph - N/A   Clear
8:56 PM 59.0 °F - 45.9 °F 62% 30.24 in 10.0 mi SSE 11.5 mph - N/A   Clear
9:56 PM 59.9 °F - 46.9 °F 62% 30.25 in 10.0 mi SE 11.5 mph - N/A   Clear
10:56 PM 57.9 °F - 50.0 °F 75% 30.26 in 10.0 mi SSE 10.4 mph - N/A   Clear
11:56 PM 57.9 °F - 50.9 °F 77% 30.27 in 10.0 mi SE 9.2 mph - N/A   Clear